Time,TemperatureF,DewpointF,PressureIn,WindDirection,WindDirectionDegrees,WindSpeedMPH,WindSpeedGustMPH,Humidity,HourlyPrecipIn,Conditions,Clouds,dailyrainin,SoftwareType,DateUTC
2013-03-01 00:01:00,30.9,30.9,29.50,ESE,107,0.0,2.0,100,0.00,,,0.25,Wunderground PWS Mod,2013-03-01 05:01:00,
2013-03-01 00:06:00,30.7,30.7,29.50,ESE,107,0.0,2.0,100,0.00,,,0.00,Wunderground PWS Mod,2013-03-01 05:06:00,
2013-03-01 00:12:00,30.9,30.9,29.50,ESE,107,0.0,1.0,100,0.00,,,0.00,Wunderground PWS Mod,2013-03-01 05:12:00,
2013-03-01 00:21:00,30.7,30.7,29.50,ESE,107,0.0,1.0,100,0.00,,,0.00,Wunderground PWS Mod,2013-03-01 05:21:00,
2013-03-01 00:25:00,30.4,30.4,29.50,ESE,113,0.0,1.0,100,0.00,,,0.00,Wunderground PWS Mod,2013-03-01 05:25:00,
2013-03-01 00:26:00,30.7,30.7,29.50,ESE,107,0.0,1.0,100,0.00,,,0.00,Wunderground PWS Mod,2013-03-01 05:26:00,
2013-03-01 00:31:00,30.6,30.6,29.50,ESE,107,0.0,1.0,100,0.00,,,0.00,Wunderground PWS Mod,2013-03-01 05:31:00,
2013-03-01 00:36:00,30.4,30.4,29.50,ESE,107,0.0,1.0,100,0.00,,,0.00,Wunderground PWS Mod,2013-03-01 05:36:00,
2013-03-01 00:42:00,30.3,30.3,29.50,ESE,107,0.0,1.0,100,0.00,,,0.00,Wunderground PWS Mod,2013-03-01 05:42:00,
2013-03-01 00:45:00,29.5,29.5,29.50,N/A,-737280,0.0,1.0,100,0.00,,,0.00,Wunderground PWS Mod,2013-03-01 05:45:00,
2013-03-01 00:51:00,30.0,30.0,29.50,ESE,107,0.0,1.0,100,0.00,,,0.00,Wunderground PWS Mod,2013-03-01 05:51:00,
2013-03-01 00:56:00,29.8,29.8,29.50,ESE,107,0.0,1.0,100,0.00,,,0.00,Wunderground PWS Mod,2013-03-01 05:56:00,
2013-03-01 01:06:00,29.5,29.5,29.50,ESE,107,0.0,1.0,100,0.00,,,0.00,Wunderground PWS Mod,2013-03-01 06:06:00,
2013-03-01 01:12:00,29.4,29.4,29.50,ESE,107,0.0,1.0,100,0.00,,,0.00,Wunderground PWS Mod,2013-03-01 06:12:00,
2013-03-01 01:20:00,29.1,29.1,29.51,N/A,-737280,0.0,0.0,100,0.00,,,0.00,Wunderground PWS Mod,2013-03-01 06:20:00,
2013-03-01 01:21:00,29.4,29.4,29.51,ESE,107,0.0,1.0,100,0.00,,,0.00,Wunderground PWS Mod,2013-03-01 06:21:00,
2013-03-01 01:26:00,29.3,29.3,29.51,ESE,107,0.0,1.0,100,0.00,,,0.00,Wunderground PWS Mod,2013-03-01 06:26:00,
2013-03-01 01:31:00,29.1,29.1,29.51,ESE,107,0.0,1.0,100,0.00,,,0.00,Wunderground PWS Mod,2013-03-01 06:31:00,
2013-03-01 01:36:00,29.1,29.1,29.51,ESE,107,0.0,1.0,100,0.00,,,0.00,Wunderground PWS Mod,2013-03-01 06:36:00,
2013-03-01 01:40:00,29.1,29.1,29.51,N/A,-737280,0.0,0.0,100,0.00,,,0.00,Wunderground PWS Mod,2013-03-01 06:40:00,
2013-03-01 01:41:00,29.1,29.1,29.51,ESE,107,0.0,0.0,100,0.00,,,0.00,Wunderground PWS Mod,2013-03-01 06:41:00,
2013-03-01 01:47:00,29.0,29.0,29.51,ESE,107,0.0,0.0,100,0.00,,,0.00,Wunderground PWS Mod,2013-03-01 06:47:00,
2013-03-01 01:52:00,29.1,29.1,29.51,ESE,107,0.0,0.0,100,0.00,,,0.00,Wunderground PWS Mod,2013-03-01 06:52:00,
2013-03-01 02:01:00,29.1,29.1,29.51,ESE,107,0.0,0.0,100,0.00,,,0.00,Wunderground PWS Mod,2013-03-01 07:01:00,
2013-03-01 02:06:00,29.1,29.1,29.51,ESE,107,0.0,0.0,100,0.00,,,0.00,Wunderground PWS Mod,2013-03-01 07:06:00,
2013-03-01 02:12:00,29.1,29.1,29.51,ESE,107,0.0,1.0,100,0.00,,,0.00,Wunderground PWS Mod,2013-03-01 07:12:00,
2013-03-01 02:20:00,29.4,29.4,29.52,East,90,0.0,2.0,100,0.00,,,0.00,Wunderground PWS Mod,2013-03-01 07:20:00,
2013-03-01 02:21:00,29.1,29.1,29.52,ESE,107,0.0,1.0,100,0.00,,,0.00,Wunderground PWS Mod,2013-03-01 07:21:00,
2013-03-01 02:26:00,29.3,29.3,29.52,WSW,252,0.0,1.0,100,0.00,,,0.00,Wunderground PWS Mod,2013-03-01 07:26:00,
2013-03-01 02:31:00,29.4,29.4,29.52,East,98,0.0,1.0,100,0.00,,,0.00,Wunderground PWS Mod,2013-03-01 07:31:00,
2013-03-01 02:36:00,29.4,29.4,29.52,SE,128,0.0,1.0,100,0.00,,,0.00,Wunderground PWS Mod,2013-03-01 07:36:00,
2013-03-01 02:42:00,29.5,29.5,29.52,SSW,192,0.0,2.0,100,0.00,,,0.00,Wunderground PWS Mod,2013-03-01 07:42:00,
2013-03-01 02:50:00,29.7,29.7,29.52,SSW,203,0.0,3.0,100,0.00,,,0.00,Wunderground PWS Mod,2013-03-01 07:50:00,
2013-03-01 02:51:00,29.5,29.5,29.52,SSW,195,0.0,2.0,100,0.00,,,0.00,Wunderground PWS Mod,2013-03-01 07:51:00,
2013-03-01 02:56:00,29.7,29.7,29.52,SSW,195,0.0,2.0,100,0.00,,,0.00,Wunderground PWS Mod,2013-03-01 07:56:00,
2013-03-01 03:02:00,29.7,29.7,29.52,SSW,195,0.0,2.0,100,0.00,,,0.00,Wunderground PWS Mod,2013-03-01 08:02:00,
2013-03-01 03:07:00,29.7,29.7,29.52,SSW,195,0.0,2.0,100,0.00,,,0.00,Wunderground PWS Mod,2013-03-01 08:07:00,
2013-03-01 03:12:00,29.8,29.8,29.52,SSW,195,0.0,3.0,100,0.00,,,0.00,Wunderground PWS Mod,2013-03-01 08:12:00,
2013-03-01 03:15:00,30.1,30.1,29.52,SSW,203,0.0,1.0,100,0.00,,,0.00,Wunderground PWS Mod,2013-03-01 08:15:00,
2013-03-01 03:21:00,29.8,29.8,29.52,SSW,195,0.0,3.0,100,0.00,,,0.00,Wunderground PWS Mod,2013-03-01 08:21:00,
2013-03-01 03:26:00,29.8,29.8,29.52,SSW,195,0.0,3.0,100,0.00,,,0.00,Wunderground PWS Mod,2013-03-01 08:26:00,
2013-03-01 03:36:00,30.1,30.1,29.52,SSW,195,0.0,3.0,100,0.00,,,0.00,Wunderground PWS Mod,2013-03-01 08:36:00,
2013-03-01 03:42:00,30.3,30.3,29.52,SSW,195,0.0,1.0,100,0.00,,,0.00,Wunderground PWS Mod,2013-03-01 08:42:00,
2013-03-01 03:50:00,30.6,30.6,29.53,SSW,203,0.0,2.0,100,0.00,,,0.00,Wunderground PWS Mod,2013-03-01 08:50:00,
2013-03-01 03:51:00,30.6,30.6,29.52,SSW,197,0.0,1.0,100,0.00,,,0.00,Wunderground PWS Mod,2013-03-01 08:51:00,
2013-03-01 03:56:00,30.7,30.7,29.52,SSW,197,0.0,1.0,100,0.00,,,0.00,Wunderground PWS Mod,2013-03-01 08:56:00,
2013-03-01 04:01:00,30.7,30.7,29.52,SSW,197,0.0,1.0,100,0.00,,,0.00,Wunderground PWS Mod,2013-03-01 09:01:00,
2013-03-01 04:06:00,30.6,30.6,29.53,SSW,197,0.0,1.0,100,0.00,,,0.00,Wunderground PWS Mod,2013-03-01 09:06:00,
2013-03-01 04:12:00,30.3,30.3,29.53,SSW,197,0.0,2.0,100,0.00,,,0.00,Wunderground PWS Mod,2013-03-01 09:12:00,
2013-03-01 04:15:00,29.8,29.8,29.54,SSW,203,0.0,3.0,100,0.00,,,0.00,Wunderground PWS Mod,2013-03-01 09:15:00,
2013-03-01 04:21:00,29.8,29.8,29.54,SSW,197,0.0,2.0,100,0.00,,,0.00,Wunderground PWS Mod,2013-03-01 09:21:00,
2013-03-01 04:32:00,29.8,29.8,29.54,SSW,197,0.0,2.0,100,0.00,,,0.00,Wunderground PWS Mod,2013-03-01 09:32:00,
2013-03-01 04:41:00,30.1,30.1,29.54,SSW,197,0.0,3.0,100,0.00,,,0.00,Wunderground PWS Mod,2013-03-01 09:41:00,
2013-03-01 04:45:00,30.9,30.9,29.54,SSW,203,0.0,5.0,100,0.00,,,0.00,Wunderground PWS Mod,2013-03-01 09:45:00,
2013-03-01 04:51:00,30.6,30.6,29.54,SSW,201,0.0,3.0,100,0.00,,,0.00,Wunderground PWS Mod,2013-03-01 09:51:00,
2013-03-01 04:56:00,30.7,30.7,29.54,SSW,195,0.0,3.0,100,0.00,,,0.00,Wunderground PWS Mod,2013-03-01 09:56:00,
2013-03-01 05:01:00,30.9,30.9,29.54,NW,320,0.0,3.0,100,0.00,,,0.00,Wunderground PWS Mod,2013-03-01 10:01:00,
2013-03-01 05:06:00,30.9,30.9,29.54,ENE,71,1.0,3.0,100,0.00,,,0.00,Wunderground PWS Mod,2013-03-01 10:06:00,
2013-03-01 05:12:00,30.7,30.7,29.54,NNW,330,1.0,5.0,100,0.00,,,0.00,Wunderground PWS Mod,2013-03-01 10:12:00,
2013-03-01 05:15:00,30.6,30.6,29.55,West,270,1.0,6.0,100,0.00,,,0.00,Wunderground PWS Mod,2013-03-01 10:15:00,
2013-03-01 05:21:00,30.7,30.7,29.55,West,272,0.0,5.0,100,0.00,,,0.00,Wunderground PWS Mod,2013-03-01 10:21:00,
2013-03-01 05:26:00,30.6,30.6,29.55,SSW,209,0.0,5.0,100,0.00,,,0.00,Wunderground PWS Mod,2013-03-01 10:26:00,
2013-03-01 05:31:00,30.6,30.6,29.55,West,267,0.0,5.0,100,0.00,,,0.00,Wunderground PWS Mod,2013-03-01 10:31:00,
2013-03-01 05:36:00,30.6,30.6,29.55,SW,219,1.0,5.0,100,0.00,,,0.00,Wunderground PWS Mod,2013-03-01 10:36:00,
2013-03-01 05:42:00,30.6,30.4,29.55,West,279,1.0,6.0,99,0.00,,,0.00,Wunderground PWS Mod,2013-03-01 10:42:00,
2013-03-01 05:45:00,30.4,30.2,29.55,SW,225,0.0,4.0,99,0.00,,,0.00,Wunderground PWS Mod,2013-03-01 10:45:00,
2013-03-01 05:51:00,30.6,30.4,29.55,SSE,154,0.0,6.0,99,0.00,,,0.00,Wunderground PWS Mod,2013-03-01 10:51:00,
2013-03-01 05:56:00,30.4,30.2,29.55,SSE,153,0.0,6.0,99,0.00,,,0.00,Wunderground PWS Mod,2013-03-01 10:56:00,
2013-03-01 06:06:00,30.4,29.9,29.55,SW,219,0.0,6.0,98,0.00,,,0.00,Wunderground PWS Mod,2013-03-01 11:06:00,
2013-03-01 06:12:00,30.4,29.9,29.55,WNW,286,0.0,4.0,98,0.00,,,0.00,Wunderground PWS Mod,2013-03-01 11:12:00,
2013-03-01 06:20:00,30.3,29.3,29.56,WNW,293,0.0,4.0,96,0.00,,,0.00,Wunderground PWS Mod,2013-03-01 11:20:00,
2013-03-01 06:21:00,30.4,29.9,29.55,SE,140,0.0,4.0,98,0.00,,,0.00,Wunderground PWS Mod,2013-03-01 11:21:00,
2013-03-01 06:26:00,30.3,29.6,29.55,WNW,286,0.0,4.0,97,0.00,,,0.00,Wunderground PWS Mod,2013-03-01 11:26:00,
2013-03-01 06:36:00,30.3,29.3,29.56,SSW,200,0.0,4.0,96,0.00,,,0.00,Wunderground PWS Mod,2013-03-01 11:36:00,
2013-03-01 06:42:00,30.3,29.3,29.56,SW,225,1.0,4.0,96,0.00,,,0.00,Wunderground PWS Mod,2013-03-01 11:42:00,
2013-03-01 06:45:00,30.3,28.3,29.56,SW,225,1.0,7.0,92,0.00,,,0.00,Wunderground PWS Mod,2013-03-01 11:45:00,
2013-03-01 06:51:00,30.3,28.8,29.56,SSW,193,0.0,4.0,94,0.00,,,0.00,Wunderground PWS Mod,2013-03-01 11:51:00,
2013-03-01 06:56:00,30.3,28.5,29.56,SW,221,1.0,4.0,93,0.00,,,0.00,Wunderground PWS Mod,2013-03-01 11:56:00,
2013-03-01 07:01:00,30.3,28.5,29.56,NW,316,1.0,4.0,93,0.00,,,0.00,Wunderground PWS Mod,2013-03-01 12:01:00,
2013-03-01 07:07:00,30.3,28.3,29.56,NNW,340,1.0,4.0,92,0.00,,,0.00,Wunderground PWS Mod,2013-03-01 12:07:00,
2013-03-01 07:12:00,30.3,28.3,29.56,NE,42,0.0,7.0,92,0.00,,,0.00,Wunderground PWS Mod,2013-03-01 12:12:00,
2013-03-01 07:15:00,30.3,27.4,29.58,WSW,248,1.0,9.0,89,0.00,,,0.00,Wunderground PWS Mod,2013-03-01 12:15:00,
2013-03-01 07:22:00,30.4,27.8,29.57,SSW,213,1.0,7.0,90,0.00,,,0.00,Wunderground PWS Mod,2013-03-01 12:22:00,
2013-03-01 07:27:00,30.4,27.8,29.57,North,9,1.0,7.0,90,0.00,,,0.00,Wunderground PWS Mod,2013-03-01 12:27:00,
2013-03-01 07:36:00,30.3,27.4,29.58,NW,309,2.0,7.0,89,0.00,,,0.00,Wunderground PWS Mod,2013-03-01 12:36:00,
2013-03-01 07:42:00,30.1,26.7,29.58,WNW,298,4.0,9.0,87,0.00,,,0.00,Wunderground PWS Mod,2013-03-01 12:42:00,
2013-03-01 07:45:00,30.4,26.7,29.59,SW,225,2.0,11.0,86,0.00,,,0.00,Wunderground PWS Mod,2013-03-01 12:45:00,
2013-03-01 07:51:00,30.3,26.9,29.59,SW,217,1.0,9.0,87,0.00,,,0.00,Wunderground PWS Mod,2013-03-01 12:51:00,
2013-03-01 07:56:00,30.3,26.9,29.59,NNW,333,1.0,9.0,87,0.00,,,0.00,Wunderground PWS Mod,2013-03-01 12:56:00,
2013-03-01 08:01:00,30.4,27.0,29.59,SSW,195,1.0,9.0,87,0.00,,,0.00,Wunderground PWS Mod,2013-03-01 13:01:00,
2013-03-01 08:07:00,30.4,26.7,29.59,WSW,254,1.0,9.0,86,0.00,,,0.00,Wunderground PWS Mod,2013-03-01 13:07:00,
2013-03-01 08:12:00,30.4,26.7,29.59,WSW,247,1.0,11.0,86,0.00,,,0.00,Wunderground PWS Mod,2013-03-01 13:12:00,
2013-03-01 08:20:00,30.6,26.9,29.59,WSW,248,1.0,7.0,86,0.00,,,0.00,Wunderground PWS Mod,2013-03-01 13:20:00,
2013-03-01 08:21:00,30.4,26.7,29.59,West,281,1.0,11.0,86,0.00,,,0.00,Wunderground PWS Mod,2013-03-01 13:21:00,
2013-03-01 08:26:00,30.4,26.7,29.59,WSW,257,1.0,11.0,86,0.00,,,0.00,Wunderground PWS Mod,2013-03-01 13:26:00,
2013-03-01 08:31:00,30.6,26.9,29.59,NNW,333,1.0,11.0,86,0.00,,,0.00,Wunderground PWS Mod,2013-03-01 13:31:00,
2013-03-01 08:40:00,30.6,26.9,29.59,WSW,248,1.0,7.0,86,0.00,,,0.00,Wunderground PWS Mod,2013-03-01 13:40:00,
2013-03-01 08:42:00,30.6,26.9,29.59,SSW,202,2.0,7.0,86,0.00,,,0.00,Wunderground PWS Mod,2013-03-01 13:42:00,
2013-03-01 08:47:00,30.6,26.6,29.59,West,264,2.0,7.0,85,0.00,,,0.00,Wunderground PWS Mod,2013-03-01 13:47:00,
2013-03-01 08:52:00,30.6,26.6,29.60,SW,228,1.0,7.0,85,0.00,,,0.00,Wunderground PWS Mod,2013-03-01 13:52:00,
2013-03-01 09:01:00,30.6,26.6,29.60,WSW,254,3.0,7.0,85,0.00,,,0.00,Wunderground PWS Mod,2013-03-01 14:01:00,
2013-03-01 09:07:00,30.6,26.6,29.61,SW,224,2.0,7.0,85,0.00,,,0.00,Wunderground PWS Mod,2013-03-01 14:07:00,
2013-03-01 09:12:00,30.6,26.6,29.61,WSW,258,2.0,7.0,85,0.00,,,0.00,Wunderground PWS Mod,2013-03-01 14:12:00,
2013-03-01 09:21:00,30.6,26.3,29.60,WSW,251,2.0,7.0,84,0.00,,,0.00,Wunderground PWS Mod,2013-03-01 14:21:00,
2013-03-01 09:25:00,30.7,26.1,29.60,WSW,248,2.0,6.0,83,0.00,,,0.00,Wunderground PWS Mod,2013-03-01 14:25:00,
2013-03-01 09:26:00,30.6,26.3,29.60,WSW,254,2.0,7.0,84,0.00,,,0.00,Wunderground PWS Mod,2013-03-01 14:26:00,
2013-03-01 09:31:00,30.7,26.4,29.60,NNW,342,1.0,7.0,84,0.00,,,0.00,Wunderground PWS Mod,2013-03-01 14:31:00,
2013-03-01 09:36:00,30.7,26.1,29.60,North,5,2.0,7.0,83,0.00,,,0.00,Wunderground PWS Mod,2013-03-01 14:36:00,
2013-03-01 09:40:00,30.7,26.1,29.60,WSW,248,2.0,6.0,83,0.00,,,0.00,Wunderground PWS Mod,2013-03-01 14:40:00,
2013-03-01 09:41:00,30.7,25.9,29.60,NE,36,3.0,6.0,82,0.00,,,0.00,Wunderground PWS Mod,2013-03-01 14:41:00,
2013-03-01 09:46:00,30.7,25.9,29.60,North,5,4.0,9.0,82,0.00,,,0.00,Wunderground PWS Mod,2013-03-01 14:46:00,
2013-03-01 09:56:00,30.7,25.9,29.61,NNW,346,4.0,6.0,82,0.00,,,0.00,Wunderground PWS Mod,2013-03-01 14:56:00,
2013-03-01 10:02:00,30.9,26.1,29.61,NNE,31,2.0,6.0,82,0.00,,,0.00,Wunderground PWS Mod,2013-03-01 15:02:00,
2013-03-01 10:07:00,30.9,26.1,29.61,NNE,15,1.0,6.0,82,0.00,,,0.00,Wunderground PWS Mod,2013-03-01 15:07:00,
2013-03-01 10:12:00,30.9,26.1,29.61,NW,317,3.0,11.0,82,0.00,,,0.00,Wunderground PWS Mod,2013-03-01 15:12:00,
2013-03-01 10:15:00,30.7,25.9,29.61,NW,315,3.0,12.0,82,0.00,,,0.00,Wunderground PWS Mod,2013-03-01 15:15:00,
2013-03-01 10:22:00,31.0,26.1,29.61,WNW,302,1.0,11.0,82,0.00,,,0.00,Wunderground PWS Mod,2013-03-01 15:22:00,
2013-03-01 10:31:00,30.9,26.1,29.61,NNW,348,2.0,11.0,82,0.00,,,0.00,Wunderground PWS Mod,2013-03-01 15:31:00,
2013-03-01 10:37:00,30.7,25.9,29.61,WNW,288,3.0,11.0,82,0.00,,,0.00,Wunderground PWS Mod,2013-03-01 15:37:00,
2013-03-01 10:42:00,30.7,26.1,29.61,NNE,29,3.0,12.0,83,0.00,,,0.00,Wunderground PWS Mod,2013-03-01 15:42:00,
2013-03-01 10:50:00,31.0,25.9,29.61,NNE,23,2.0,11.0,81,0.00,,,0.00,Wunderground PWS Mod,2013-03-01 15:50:00,
2013-03-01 10:51:00,30.9,26.1,29.61,NNE,30,1.0,12.0,82,0.00,,,0.00,Wunderground PWS Mod,2013-03-01 15:51:00,
2013-03-01 10:56:00,31.0,26.1,29.61,West,271,1.0,12.0,82,0.00,,,0.00,Wunderground PWS Mod,2013-03-01 15:56:00,
2013-03-01 11:01:00,31.0,26.1,29.61,North,360,3.0,12.0,82,0.00,,,0.00,Wunderground PWS Mod,2013-03-01 16:01:00,
2013-03-01 11:12:00,31.0,25.9,29.61,NE,55,4.0,11.0,81,0.00,,,0.00,Wunderground PWS Mod,2013-03-01 16:12:00,
2013-03-01 11:21:00,31.2,26.0,29.62,NE,46,5.0,11.0,81,0.00,,,0.00,Wunderground PWS Mod,2013-03-01 16:21:00,
2013-03-01 11:25:00,31.6,26.1,29.62,NNE,23,4.0,11.0,80,0.00,,,0.00,Wunderground PWS Mod,2013-03-01 16:25:00,
2013-03-01 11:26:00,31.5,26.3,29.62,NNW,340,4.0,11.0,81,0.00,,,0.00,Wunderground PWS Mod,2013-03-01 16:26:00,
2013-03-01 11:31:00,31.5,26.0,29.62,NNE,22,4.0,11.0,80,0.00,,,0.00,Wunderground PWS Mod,2013-03-01 16:31:00,
2013-03-01 11:36:00,31.6,26.1,29.62,NW,314,4.0,11.0,80,0.00,,,0.00,Wunderground PWS Mod,2013-03-01 16:36:00,
2013-03-01 11:40:00,31.6,26.1,29.62,NNE,23,4.0,11.0,80,0.00,,,0.00,Wunderground PWS Mod,2013-03-01 16:40:00,
2013-03-01 11:42:00,31.8,26.3,29.62,NNE,30,2.0,11.0,80,0.00,,,0.00,Wunderground PWS Mod,2013-03-01 16:42:00,
2013-03-01 11:47:00,31.9,26.4,29.62,North,355,2.0,11.0,80,0.00,,,0.00,Wunderground PWS Mod,2013-03-01 16:47:00,
2013-03-01 11:56:00,32.4,26.6,29.61,WNW,297,1.0,11.0,79,0.00,,,0.00,Wunderground PWS Mod,2013-03-01 16:56:00,
2013-03-01 12:02:00,32.4,26.9,29.61,WNW,289,2.0,11.0,80,0.00,,,0.00,Wunderground PWS Mod,2013-03-01 17:02:00,
2013-03-01 12:07:00,32.4,26.9,29.61,SW,232,2.0,11.0,80,0.00,,,0.00,Wunderground PWS Mod,2013-03-01 17:07:00,
2013-03-01 12:15:00,32.5,27.0,29.61,WSW,248,2.0,8.0,80,0.00,,,0.00,Wunderground PWS Mod,2013-03-01 17:15:00,
2013-03-01 12:16:00,32.4,26.9,29.61,West,275,2.0,8.0,80,0.00,,,0.00,Wunderground PWS Mod,2013-03-01 17:16:00,
2013-03-01 12:21:00,32.4,26.9,29.61,NW,313,2.0,8.0,80,0.00,,,0.00,Wunderground PWS Mod,2013-03-01 17:21:00,
2013-03-01 12:26:00,32.4,26.9,29.61,NNW,329,2.0,8.0,80,0.00,,,0.00,Wunderground PWS Mod,2013-03-01 17:26:00,
2013-03-01 12:31:00,32.4,26.6,29.61,WNW,293,2.0,8.0,79,0.00,,,0.00,Wunderground PWS Mod,2013-03-01 17:31:00,
2013-03-01 12:36:00,32.5,27.0,29.61,WNW,290,2.0,8.0,80,0.00,,,0.00,Wunderground PWS Mod,2013-03-01 17:36:00,
2013-03-01 12:42:00,32.5,26.7,29.61,SW,227,2.0,8.0,79,0.00,,,0.00,Wunderground PWS Mod,2013-03-01 17:42:00,
2013-03-01 12:45:00,32.7,26.6,29.61,West,270,1.0,9.0,78,0.00,,,0.00,Wunderground PWS Mod,2013-03-01 17:45:00,
2013-03-01 12:51:00,32.4,26.6,29.61,West,265,2.0,8.0,79,0.00,,,0.00,Wunderground PWS Mod,2013-03-01 17:51:00,
2013-03-01 12:56:00,32.5,26.7,29.61,WNW,300,1.0,8.0,79,0.00,,,0.00,Wunderground PWS Mod,2013-03-01 17:56:00,
2013-03-01 13:01:00,32.5,26.7,29.61,NNE,25,1.0,8.0,79,0.00,,,0.00,Wunderground PWS Mod,2013-03-01 18:01:00,
2013-03-01 13:06:00,32.7,26.6,29.61,NNE,27,1.0,8.0,78,0.00,,,0.00,Wunderground PWS Mod,2013-03-01 18:06:00,
2013-03-01 13:12:00,32.8,26.7,29.61,NNE,30,1.0,9.0,78,0.00,,,0.00,Wunderground PWS Mod,2013-03-01 18:12:00,
2013-03-01 13:15:00,32.9,26.8,29.61,West,270,1.0,11.0,78,0.00,,,0.00,Wunderground PWS Mod,2013-03-01 18:15:00,
2013-03-01 13:22:00,32.9,26.5,29.61,West,267,1.0,9.0,77,0.00,,,0.00,Wunderground PWS Mod,2013-03-01 18:22:00,
2013-03-01 13:31:00,32.9,26.5,29.61,SW,234,2.0,9.0,77,0.00,,,0.00,Wunderground PWS Mod,2013-03-01 18:31:00,
2013-03-01 13:36:00,32.9,26.8,29.61,North,355,2.0,9.0,78,0.00,,,0.00,Wunderground PWS Mod,2013-03-01 18:36:00,
2013-03-01 13:42:00,32.9,26.5,29.61,WNW,289,1.0,11.0,77,0.00,,,0.00,Wunderground PWS Mod,2013-03-01 18:42:00,
2013-03-01 13:50:00,32.9,26.8,29.61,WSW,248,1.0,7.0,78,0.00,,,0.00,Wunderground PWS Mod,2013-03-01 18:50:00,
2013-03-01 13:51:00,32.9,26.8,29.61,West,279,1.0,11.0,78,0.00,,,0.00,Wunderground PWS Mod,2013-03-01 18:51:00,
2013-03-01 13:57:00,32.9,26.8,29.61,WSW,251,2.0,11.0,78,0.00,,,0.00,Wunderground PWS Mod,2013-03-01 18:57:00,
2013-03-01 14:02:00,32.9,26.8,29.61,WNW,300,2.0,11.0,78,0.00,,,0.00,Wunderground PWS Mod,2013-03-01 19:02:00,
2013-03-01 14:07:00,32.9,26.8,29.61,NW,311,1.0,11.0,78,0.00,,,0.00,Wunderground PWS Mod,2013-03-01 19:07:00,
2013-03-01 14:12:00,32.8,26.7,29.61,SE,142,2.0,7.0,78,0.00,,,0.00,Wunderground PWS Mod,2013-03-01 19:12:00,
2013-03-01 14:15:00,32.9,26.8,29.62,West,270,1.0,7.0,78,0.00,,,0.00,Wunderground PWS Mod,2013-03-01 19:15:00,
2013-03-01 14:21:00,32.8,26.7,29.61,West,265,0.0,7.0,78,0.00,,,0.00,Wunderground PWS Mod,2013-03-01 19:21:00,
2013-03-01 14:26:00,32.9,27.1,29.61,WSW,237,0.0,7.0,79,0.00,,,0.00,Wunderground PWS Mod,2013-03-01 19:26:00,
2013-03-01 14:31:00,32.9,26.8,29.61,NW,311,1.0,7.0,78,0.00,,,0.00,Wunderground PWS Mod,2013-03-01 19:31:00,
2013-03-01 14:36:00,32.9,26.8,29.62,WSW,250,1.0,7.0,78,0.00,,,0.00,Wunderground PWS Mod,2013-03-01 19:36:00,
2013-03-01 14:42:00,32.8,27.0,29.62,WSW,242,1.0,7.0,79,0.00,,,0.00,Wunderground PWS Mod,2013-03-01 19:42:00,
2013-03-01 14:45:00,32.7,27.2,29.62,West,270,1.0,7.0,80,0.00,,,0.00,Wunderground PWS Mod,2013-03-01 19:45:00,
2013-03-01 14:52:00,32.8,27.0,29.62,WSW,242,2.0,7.0,79,0.00,,,0.00,Wunderground PWS Mod,2013-03-01 19:52:00,
2013-03-01 15:01:00,32.7,27.2,29.62,SW,236,2.0,7.0,80,0.00,,,0.00,Wunderground PWS Mod,2013-03-01 20:01:00,
2013-03-01 15:12:00,32.5,27.0,29.62,WNW,292,2.0,7.0,80,0.00,,,0.00,Wunderground PWS Mod,2013-03-01 20:12:00,
2013-03-01 15:15:00,32.1,27.5,29.63,WSW,248,2.0,10.0,83,0.00,,,0.00,Wunderground PWS Mod,2013-03-01 20:15:00,
2013-03-01 15:22:00,32.4,27.2,29.63,WNW,286,3.0,7.0,81,0.00,,,0.00,Wunderground PWS Mod,2013-03-01 20:22:00,
2013-03-01 15:27:00,32.2,27.3,29.63,SW,236,3.0,7.0,82,0.00,,,0.00,Wunderground PWS Mod,2013-03-01 20:27:00,
2013-03-01 15:36:00,32.1,27.5,29.63,WSW,254,2.0,7.0,83,0.00,,,0.00,Wunderground PWS Mod,2013-03-01 20:36:00,
2013-03-01 15:42:00,32.1,27.5,29.63,WNW,288,2.0,10.0,83,0.00,,,0.00,Wunderground PWS Mod,2013-03-01 20:42:00,
2013-03-01 15:50:00,31.5,27.5,29.63,WSW,248,3.0,9.0,85,0.00,,,0.00,Wunderground PWS Mod,2013-03-01 20:50:00,
2013-03-01 15:51:00,31.8,27.5,29.63,West,267,3.0,10.0,84,0.00,,,0.00,Wunderground PWS Mod,2013-03-01 20:51:00,
2013-03-01 15:56:00,31.6,27.3,29.63,West,267,3.0,10.0,84,0.00,,,0.00,Wunderground PWS Mod,2013-03-01 20:56:00,
2013-03-01 16:06:00,31.5,27.5,29.63,WNW,290,2.0,10.0,85,0.00,,,0.00,Wunderground PWS Mod,2013-03-01 21:06:00,
2013-03-01 16:12:00,31.3,27.6,29.63,West,266,2.0,9.0,86,0.00,,,0.00,Wunderground PWS Mod,2013-03-01 21:12:00,
2013-03-01 16:15:00,31.2,27.5,29.64,WNW,293,2.0,11.0,86,0.00,,,0.00,Wunderground PWS Mod,2013-03-01 21:15:00,
2013-03-01 16:21:00,31.2,27.5,29.64,WSW,250,3.0,9.0,86,0.00,,,0.00,Wunderground PWS Mod,2013-03-01 21:21:00,
2013-03-01 16:26:00,31.2,27.8,29.64,WSW,256,2.0,9.0,87,0.00,,,0.00,Wunderground PWS Mod,2013-03-01 21:26:00,
2013-03-01 16:31:00,31.2,27.8,29.64,WNW,283,1.0,9.0,87,0.00,,,0.00,Wunderground PWS Mod,2013-03-01 21:31:00,
2013-03-01 16:36:00,31.2,27.5,29.64,WSW,246,1.0,9.0,86,0.00,,,0.00,Wunderground PWS Mod,2013-03-01 21:36:00,
2013-03-01 16:42:00,31.2,27.5,29.64,SW,219,1.0,11.0,86,0.00,,,0.00,Wunderground PWS Mod,2013-03-01 21:42:00,
2013-03-01 16:45:00,31.0,27.3,29.64,SW,225,1.0,8.0,86,0.00,,,0.00,Wunderground PWS Mod,2013-03-01 21:45:00,
2013-03-01 16:52:00,31.2,27.5,29.64,West,281,1.0,11.0,86,0.00,,,0.00,Wunderground PWS Mod,2013-03-01 21:52:00,
2013-03-01 16:57:00,31.2,27.5,29.64,West,273,2.0,11.0,86,0.00,,,0.00,Wunderground PWS Mod,2013-03-01 21:57:00,
2013-03-01 17:06:00,31.0,27.3,29.64,South,180,2.0,11.0,86,0.00,,,0.00,Wunderground PWS Mod,2013-03-01 22:06:00,
2013-03-01 17:12:00,31.0,27.3,29.64,WNW,285,2.0,8.0,86,0.00,,,0.00,Wunderground PWS Mod,2013-03-01 22:12:00,
2013-03-01 17:15:00,30.7,27.0,29.65,West,270,2.0,11.0,86,0.00,,,0.00,Wunderground PWS Mod,2013-03-01 22:15:00,
2013-03-01 17:21:00,30.9,27.2,29.65,West,279,2.0,8.0,86,0.00,,,0.00,Wunderground PWS Mod,2013-03-01 22:21:00,
2013-03-01 17:26:00,30.9,27.2,29.65,West,259,2.0,8.0,86,0.00,,,0.00,Wunderground PWS Mod,2013-03-01 22:26:00,
2013-03-01 17:36:00,30.7,27.0,29.65,SW,220,2.0,8.0,86,0.00,,,0.00,Wunderground PWS Mod,2013-03-01 22:36:00,
2013-03-01 17:42:00,30.7,27.0,29.65,NNE,32,2.0,11.0,86,0.00,,,0.00,Wunderground PWS Mod,2013-03-01 22:42:00,
2013-03-01 17:45:00,30.4,27.3,29.66,WNW,293,2.0,9.0,88,0.00,,,0.00,Wunderground PWS Mod,2013-03-01 22:45:00,
2013-03-01 17:51:00,30.7,27.0,29.66,SSW,213,2.0,11.0,86,0.00,,,0.00,Wunderground PWS Mod,2013-03-01 22:51:00,
2013-03-01 17:56:00,30.6,27.2,29.66,West,273,2.0,11.0,87,0.00,,,0.00,Wunderground PWS Mod,2013-03-01 22:56:00,
2013-03-01 18:01:00,30.6,27.2,29.66,SW,234,2.0,11.0,87,0.00,,,0.00,Wunderground PWS Mod,2013-03-01 23:01:00,
2013-03-01 18:06:00,30.4,27.3,29.66,West,266,1.0,11.0,88,0.00,,,0.00,Wunderground PWS Mod,2013-03-01 23:06:00,
2013-03-01 18:12:00,30.4,27.3,29.66,WSW,257,2.0,9.0,88,0.00,,,0.00,Wunderground PWS Mod,2013-03-01 23:12:00,
2013-03-01 18:20:00,30.3,27.4,29.67,West,270,1.0,7.0,89,0.00,,,0.00,Wunderground PWS Mod,2013-03-01 23:20:00,
2013-03-01 18:22:00,30.3,27.4,29.66,ESE,112,1.0,9.0,89,0.00,,,0.00,Wunderground PWS Mod,2013-03-01 23:22:00,
2013-03-01 18:27:00,30.3,27.4,29.66,WNW,297,1.0,9.0,89,0.00,,,0.00,Wunderground PWS Mod,2013-03-01 23:27:00,
2013-03-01 18:32:00,30.3,27.4,29.66,SW,215,1.0,9.0,89,0.00,,,0.00,Wunderground PWS Mod,2013-03-01 23:32:00,
2013-03-01 18:42:00,30.3,27.4,29.67,NNW,328,0.0,7.0,89,0.00,,,0.00,Wunderground PWS Mod,2013-03-01 23:42:00,
2013-03-01 18:45:00,30.1,27.3,29.67,NW,315,0.0,4.0,89,0.00,,,0.00,Wunderground PWS Mod,2013-03-01 23:45:00,
2013-03-01 18:47:00,30.3,27.4,29.67,NNW,328,0.0,7.0,89,0.00,,,0.00,Wunderground PWS Mod,2013-03-01 23:47:00,
2013-03-01 18:52:00,30.1,27.3,29.67,NNW,328,0.0,7.0,89,0.00,,,0.00,Wunderground PWS Mod,2013-03-01 23:52:00,
2013-03-01 19:02:00,30.1,27.3,29.67,WNW,294,1.0,7.0,89,0.00,,,0.00,Wunderground PWS Mod,2013-03-02 00:02:00,
2013-03-01 19:12:00,30.3,27.4,29.67,WSW,248,1.0,5.0,89,0.00,,,0.00,Wunderground PWS Mod,2013-03-02 00:12:00,
2013-03-01 19:15:00,30.3,27.2,29.67,WSW,248,1.0,5.0,88,0.00,,,0.00,Wunderground PWS Mod,2013-03-02 00:15:00,
2013-03-01 19:22:00,30.3,27.4,29.67,SSW,211,1.0,4.0,89,0.00,,,0.00,Wunderground PWS Mod,2013-03-02 00:22:00,
2013-03-01 19:27:00,30.3,27.2,29.67,NW,323,0.0,4.0,88,0.00,,,0.00,Wunderground PWS Mod,2013-03-02 00:27:00,
2013-03-01 19:32:00,30.3,27.4,29.67,NNW,334,1.0,4.0,89,0.00,,,0.00,Wunderground PWS Mod,2013-03-02 00:32:00,
2013-03-01 19:37:00,30.3,27.2,29.67,WSW,244,1.0,4.0,88,0.00,,,0.00,Wunderground PWS Mod,2013-03-02 00:37:00,
2013-03-01 19:45:00,30.1,27.0,29.67,West,270,0.0,5.0,88,0.00,,,0.00,Wunderground PWS Mod,2013-03-02 00:45:00,
2013-03-01 19:46:00,30.1,27.0,29.67,SW,220,1.0,5.0,88,0.00,,,0.00,Wunderground PWS Mod,2013-03-02 00:46:00,
2013-03-01 19:52:00,30.1,27.0,29.67,SW,220,1.0,5.0,88,0.00,,,0.00,Wunderground PWS Mod,2013-03-02 00:52:00,
2013-03-01 20:01:00,30.1,27.0,29.67,WSW,242,0.0,5.0,88,0.00,,,0.00,Wunderground PWS Mod,2013-03-02 01:01:00,
2013-03-01 20:06:00,30.1,27.0,29.67,WSW,242,0.0,5.0,88,0.00,,,0.00,Wunderground PWS Mod,2013-03-02 01:06:00,
2013-03-01 20:12:00,30.1,27.3,29.67,West,260,0.0,5.0,89,0.00,,,0.00,Wunderground PWS Mod,2013-03-02 01:12:00,
2013-03-01 20:15:00,30.1,27.0,29.67,West,270,0.0,3.0,88,0.00,,,0.00,Wunderground PWS Mod,2013-03-02 01:15:00,
2013-03-01 20:21:00,30.1,27.0,29.67,WNW,296,0.0,5.0,88,0.00,,,0.00,Wunderground PWS Mod,2013-03-02 01:21:00,
2013-03-01 20:26:00,30.1,27.0,29.67,WNW,296,0.0,5.0,88,0.00,,,0.00,Wunderground PWS Mod,2013-03-02 01:26:00,
2013-03-01 20:36:00,30.1,27.0,29.67,NW,315,0.0,5.0,88,0.00,,,0.00,Wunderground PWS Mod,2013-03-02 01:36:00,
2013-03-01 20:42:00,30.1,27.0,29.67,NW,315,0.0,3.0,88,0.00,,,0.00,Wunderground PWS Mod,2013-03-02 01:42:00,
2013-03-01 20:50:00,29.7,27.4,29.67,NW,315,0.0,3.0,91,0.00,,,0.00,Wunderground PWS Mod,2013-03-02 01:50:00,
2013-03-01 20:51:00,30.0,27.2,29.67,NW,315,0.0,3.0,89,0.00,,,0.00,Wunderground PWS Mod,2013-03-02 01:51:00,
2013-03-01 20:57:00,29.8,27.2,29.67,WSW,238,0.0,3.0,90,0.00,,,0.00,Wunderground PWS Mod,2013-03-02 01:57:00,
2013-03-01 21:02:00,29.8,27.2,29.67,WSW,238,0.0,3.0,90,0.00,,,0.00,Wunderground PWS Mod,2013-03-02 02:02:00,
2013-03-01 21:12:00,29.5,27.2,29.67,WSW,238,0.0,3.0,91,0.00,,,0.00,Wunderground PWS Mod,2013-03-02 02:12:00,
2013-03-01 21:15:00,29.4,27.4,29.67,WSW,248,0.0,1.0,92,0.00,,,0.00,Wunderground PWS Mod,2013-03-02 02:15:00,
2013-03-01 21:21:00,29.5,27.5,29.67,WSW,238,0.0,3.0,92,0.00,,,0.00,Wunderground PWS Mod,2013-03-02 02:21:00,
2013-03-01 21:26:00,29.4,27.4,29.67,WSW,238,0.0,3.0,92,0.00,,,0.00,Wunderground PWS Mod,2013-03-02 02:26:00,
2013-03-01 21:32:00,29.4,27.4,29.67,WSW,238,0.0,3.0,92,0.00,,,0.00,Wunderground PWS Mod,2013-03-02 02:32:00,
2013-03-01 21:42:00,29.4,27.6,29.67,SSW,195,0.0,1.0,93,0.00,,,0.00,Wunderground PWS Mod,2013-03-02 02:42:00,
2013-03-01 21:51:00,29.4,27.6,29.66,SSW,195,0.0,1.0,93,0.00,,,0.00,Wunderground PWS Mod,2013-03-02 02:51:00,
2013-03-01 21:55:00,29.3,27.5,29.66,SSW,203,0.0,2.0,93,0.00,,,0.00,Wunderground PWS Mod,2013-03-02 02:55:00,
2013-03-01 22:01:00,29.3,27.5,29.66,SSW,196,0.0,1.0,93,0.00,,,0.00,Wunderground PWS Mod,2013-03-02 03:01:00,
2013-03-01 22:06:00,29.3,27.5,29.66,SSW,196,0.0,1.0,93,0.00,,,0.00,Wunderground PWS Mod,2013-03-02 03:06:00,
2013-03-01 22:12:00,29.3,27.5,29.66,SSW,196,0.0,2.0,93,0.00,,,0.00,Wunderground PWS Mod,2013-03-02 03:12:00,
2013-03-01 22:15:00,29.3,27.5,29.66,SSW,203,0.0,1.0,93,0.00,,,0.00,Wunderground PWS Mod,2013-03-02 03:15:00,
2013-03-01 22:22:00,29.3,27.5,29.66,SSW,195,0.0,2.0,93,0.00,,,0.00,Wunderground PWS Mod,2013-03-02 03:22:00,
2013-03-01 22:27:00,29.3,27.5,29.66,SSW,196,0.0,2.0,93,0.00,,,0.00,Wunderground PWS Mod,2013-03-02 03:27:00,
2013-03-01 22:32:00,29.3,27.5,29.66,SSW,196,0.0,2.0,93,0.00,,,0.00,Wunderground PWS Mod,2013-03-02 03:32:00,
2013-03-01 22:42:00,29.3,27.5,29.66,SSW,195,0.0,1.0,93,0.00,,,0.00,Wunderground PWS Mod,2013-03-02 03:42:00,
2013-03-01 22:45:00,29.3,27.3,29.66,SSW,203,0.0,5.0,92,0.00,,,0.00,Wunderground PWS Mod,2013-03-02 03:45:00,
2013-03-01 22:52:00,29.3,27.5,29.66,SSW,193,0.0,1.0,93,0.00,,,0.00,Wunderground PWS Mod,2013-03-02 03:52:00,
2013-03-01 22:57:00,29.3,27.3,29.66,SSW,193,0.0,1.0,92,0.00,,,0.00,Wunderground PWS Mod,2013-03-02 03:57:00,
2013-03-01 23:02:00,29.3,27.3,29.66,NW,325,0.0,2.0,92,0.00,,,0.00,Wunderground PWS Mod,2013-03-02 04:02:00,
2013-03-01 23:07:00,29.3,27.3,29.66,NW,316,0.0,1.0,92,0.00,,,0.00,Wunderground PWS Mod,2013-03-02 04:07:00,
2013-03-01 23:12:00,29.3,26.7,29.66,NNW,332,1.0,5.0,90,0.00,,,0.00,Wunderground PWS Mod,2013-03-02 04:12:00,
2013-03-01 23:20:00,29.5,26.4,29.65,NNE,23,1.0,8.0,88,0.00,,,0.00,Wunderground PWS Mod,2013-03-02 04:20:00,
2013-03-01 23:21:00,29.4,26.6,29.66,NNE,16,1.0,5.0,89,0.00,,,0.00,Wunderground PWS Mod,2013-03-02 04:21:00,
2013-03-01 23:27:00,29.4,26.6,29.66,NNE,28,1.0,5.0,89,0.00,,,0.00,Wunderground PWS Mod,2013-03-02 04:27:00,
2013-03-01 23:32:00,29.4,26.3,29.66,NNE,15,1.0,5.0,88,0.00,,,0.00,Wunderground PWS Mod,2013-03-02 04:32:00,
2013-03-01 23:37:00,29.5,26.4,29.65,NNE,18,2.0,5.0,88,0.00,,,0.00,Wunderground PWS Mod,2013-03-02 04:37:00,
2013-03-01 23:42:00,29.5,26.4,29.65,NNE,18,1.0,8.0,88,0.00,,,0.00,Wunderground PWS Mod,2013-03-02 04:42:00,
2013-03-01 23:45:00,29.5,26.7,29.65,North,0,0.0,5.0,89,0.00,,,0.00,Wunderground PWS Mod,2013-03-02 04:45:00,
2013-03-01 23:52:00,29.5,26.4,29.65,SSE,164,0.0,8.0,88,0.00,,,0.00,Wunderground PWS Mod,2013-03-02 04:52:00,